Showing default

COSMOS 2270, 23001

Orbit data source: Space-Track

COSMOS 2270, 23001 is a payload satellite owned by VKS (CIS) in LEO that was launched on Sat, 12 Feb 1994 UTC via a TSIKLON-3 launch vehicle from the Plesetsk Missile And Space Complex (PKMTR). Payload-class satellites include a variety of spacecraft equipped with specific instruments for various scientific and technological missions. These include communications satellites like Starlink; space stations such as the ISS; scientific satellites like the Hubble; Earth observation satellites from companies like Planet Labs, Umbra, and HawkEye 360; GPS; miniature CubeSats for education and research; and military/defense satellites.

Loading next visibility...
Identifier
23001, 1994-011C
Orbit
LEO
Country
Flag of CISCIS
Related business
Manufacturer
NPO PM
Mission
Defense Communications
Bus & Motor
STRELA-3, Unknown motor
Mass
225 kg wet, 225 kg dry
Launch date (UTC)
1994-02-12 (32 years ago)
Launch vehicle
TSIKLON-3
Launch site
Plesetsk Missile And Space Complex (PKMTR)
Object type
Payload
Rocket body
Debris
Shape & HBR
Cyl, 0.8 m
Radar Cross Section
1.257 m², Large (>1 m²)

Expand to show TLE details & history
Last TLE update: 12 hours ago

TLE from 12 hours ago
0 COSMOS 2270
1 23001U 94011C   26127.53492139  .00000016  00000-0  29157-4 0  9990
2 23001  82.5745 339.8161 0006399 272.8136 112.6601 12.62934017485522
Epoch: 2026-05-07T12:50Z
TLE epoch observation values (Epoch: 2026-05-07T12:50:17.208Z)
Latitude
25.33968°
Longitude
-74.61438°
Altitude
1,415.706 km
Speed
7.154 km/s
True Right ascension
22h 53m 20s
True Declination
25° 13' 05"
Sunlit
Object was in daylight at epoch
Visualization orbit readout
Latitude
Unknown
Longitude
Unknown
Altitude
Unknown
Speed
Unknown
Apparent Right ascension
Unknown
Apparent Declination
Unknown
Sunlit
N/A
Visualization observer readout
Local Sidereal Time
09:09:26
Azimuth
Unknown
Elevation
Unknown
Doppler factor
Unknown
Orbital elements
Apogee altitude
1,413.16 km
Perigee altitude
1,403.195 km
Semi-major axis
7,786.315 km
Eccentricity
0.00064
Inclination
82.5745°
RAAN
339.8161°
Arg. of periapsis
272.8136°
True anomaly
112.72775°
Mean anomaly
112.6601°
Eccentric anomaly
112.69393°
Mean motion
3.15897 °/min
Orbital period
113.96 mins
BSTAR
0.000029157
Loading maneuver chart data...
Computing Atmospheric mass density...
Loading historical data...
Loading historical data...
Loading historical data...
Loading historical data...
Loading historical data...
Loading historical data...
Loading historical data...

Documentation

Showing up to 5 results
|